User: anonymous   Login
Location: Newark
(43.0000°N, 1.6781°W)
Time: 00:16:52
(UTC+00:00)
Language:

N. Korean satellite - Orbit

View from above orbital plane
View from above orbital plane
View from above satellite
View from above satellite

Ground track
Ground track

The orbit data is extracted from the following two-line orbital elements,

1 39026U 12072A   22021.51782518  .00007610  00000-0  24266-3 0  9993
2 39026  97.2604  14.5259 0032531 329.2069  30.7264 15.32281070506395
Epoch (UTC): 21 January 2022 12:25:40
Eccentricity: 0.0032531
inclination: 97.2604°
perigee height: 447 km
apogee height: 491 km
right ascension of ascending node: 14.5259°
argument of perigee: 329.2069°
revolutions per day: 15.32281070
mean anomaly at epoch: 30.7264°
orbit number at epoch: 50639

The dashed part of the orbit path shows where the satellite is in the earth's shadow,  

DLR